Wind_Speed
18 19 19 18 18 19 19 20 20 21 22 23 23 24 24 25 26 27 29 30 31 32 32 33 33 33 34 34 35 35 34 34 34 35 35 36 36 36 37 37 37 37 38 38 37 37 38 38 38 38 38 38 38 38 37 38 38 37 37 37 37 38 39 39 37 32 31 33 34 34 36 38 40 39 34 30 34 37 39 41 43 45 48 49 49
20 20 20 20 20 20 20 21 21 22 23 24 25 25 26 27 28 29 31 32 32 33 34 34 33 34 35 35 35 35 35 34 34 35 35 35 36 36 37 37 38 38 38 39 39 39 39 39 40 40 40 39 39 39 39 39 39 38 38 39 38 38 40 41 40 36 33 33 34 34 36 38 39 40 37 31 30 33 34 36 38 41 45 48 51
22 22 22 22 22 21 21 21 22 23 24 25 26 27 28 29 30 31 33 34 34 35 35 34 34 35 35 36 36 35 35 34 34 34 35 35 36 36 37 37 38 38 39 39 39 40 40 40 41 41 41 41 41 41 41 41 41 40 39 40 40 39 40 42 42 40 36 34 35 35 36 37 38 38 37 33 29 30 32 34 35 38 42 43 46
22 24 24 23 23 23 22 22 23 24 26 27 27 28 29 31 32 33 34 35 36 36 36 35 35 36 36 36 35 35 34 34 35 35 35 36 37 37 38 38 38 38 39 39 40 40 40 41 41 41 41 42 42 42 43 43 43 43 42 41 42 41 41 41 43 43 40 35 36 37 36 37 37 36 37 35 29 28 32 35 37 40 43 43 44
20 23 24 24 24 24 24 24 25 26 27 28 29 30 31 32 33 34 36 37 37 37 36 35 36 37 37 36 35 35 35 35 35 36 36 37 37 37 38 38 38 39 39 40 40 40 41 41 41 42 42 42 43 43 43 44 44 45 45 44 43 43 42 42 43 44 43 38 36 37 38 37 37 36 36 36 33 31 31 35 38 40 42 44 44
20 22 23 24 25 25 25 26 26 28 29 29 30 31 32 33 34 35 37 38 38 37 36 36 37 37 36 35 35 35 35 35 36 36 36 37 37 38 38 38 39 39 40 40 41 42 42 42 42 43 43 43 43 43 44 44 45 45 46 46 45 45 44 43 44 45 45 42 38 38 39 38 39 38 36 36 37 36 33 32 34 36 38 42 44
21 22 23 24 25 26 26 27 28 29 30 30 31 32 33 34 35 36 37 38 37 36 36 37 37 37 36 35 35 35 36 36 36 37 37 37 38 38 39 40 40 41 42 42 43 44 44 45 45 45 45 45 45 45 45 45 45 45 46 46 46 46 45 45 45 46 46 45 41 39 39 39 39 39 38 38 38 38 36 33 32 33 36 41 47
23 23 24 24 25 26 27 28 29 30 31 31 32 33 34 35 36 37 37 37 37 36 37 37 37 36 36 36 36 36 36 36 37 38 38 39 39 40 40 41 42 43 44 44 45 46 46 47 47 47 48 48 48 48 48 48 47 47 47 47 47 47 47 46 47 47 47 47 45 42 41 40 40 40 40 40 38 37 36 34 33 34 35 40 48
22 23 23 25 26 27 27 28 30 31 32 32 33 33 34 36 36 37 37 37 37 36 37 37 37 36 36 36 36 37 37 37 37 38 38 39 40 40 41 42 43 43 44 45 45 46 46 47 47 48 48 49 50 50 51 51 50 49 48 49 49 49 48 48 48 48 48 49 48 45 44 42 40 41 42 41 40 38 37 35 33 34 34 37 46
24 24 25 26 27 27 28 29 31 32 32 33 33 34 35 36 36 37 37 37 36 36 37 37 37 37 37 37 37 38 38 38 38 38 39 40 40 41 42 42 43 43 43 43 44 45 45 46 46 47 48 48 49 50 51 52 53 52 51 51 50 50 50 50 50 50 49 49 49 48 47 44 42 42 42 43 42 40 38 37 36 35 33 33 40
28 28 28 28 28 28 29 31 32 32 33 33 34 35 36 36 37 37 37 36 36 36 36 36 36 36 37 37 38 38 38 38 39 40 41 41 42 42 42 42 42 42 42 42 43 43 44 45 46 47 47 48 49 49 51 52 53 54 55 54 53 52 51 51 51 52 51 50 49 49 49 47 45 43 43 43 43 41 40 39 38 37 34 31 34
28 29 30 30 30 30 31 32 33 33 34 34 35 36 36 36 37 36 35 35 35 35 35 36 36 36 37 38 38 38 39 39 40 41 41 42 42 41 41 41 41 41 42 42 43 44 44 45 46 47 48 48 49 50 51 52 53 54 56 56 57 56 55 53 52 52 53 52 51 50 50 49 48 46 44 44 44 43 41 40 38 37 36 32 31
28 29 32 32 31 31 33 34 34 34 35 35 36 37 36 36 36 35 34 34 34 34 35 35 36 36 37 37 37 38 39 40 41 42 42 41 41 41 41 42 42 42 43 44 44 45 45 46 47 47 48 49 50 50 51 52 53 54 55 57 58 58 58 57 55 53 53 54 53 51 50 51 50 48 46 45 44 44 42 41 39 37 36 35 31
28 30 32 33 33 33 34 35 35 35 36 37 36 36 35 34 33 33 33 34 33 33 34 34 35 36 36 36 37 38 40 41 41 41 41 41 41 41 42 43 44 44 45 45 46 46 46 47 47 47 48 49 50 51 52 53 53 54 54 56 57 59 59 59 59 56 54 53 54 53 52 51 51 50 48 46 45 44 43 42 40 37 36 36 33
29 29 30 31 33 37 37 36 36 36 37 37 36 34 32 31 32 32 33 33 32 32 33 33 34 34 35 36 38 39 40 40 40 40 40 40 41 42 43 44 44 45 45 46 46 46 46 47 47 48 49 50 51 52 53 54 54 54 54 55 56 57 59 59 60 59 57 54 53 54 53 52 52 51 50 49 46 45 43 42 41 38 36 35 33
31 32 31 31 34 39 39 37 36 36 36 35 32 30 29 30 31 32 31 31 31 32 32 32 33 33 35 37 38 39 39 39 38 39 39 40 41 42 43 43 44 44 44 45 45 46 46 46 47 48 49 50 50 52 53 54 55 55 56 56 55 55 56 57 58 59 58 56 53 53 54 53 53 52 51 50 49 46 45 44 41 39 37 36 34
34 34 31 31 34 39 39 37 35 34 32 30 27 27 28 29 30 30 30 30 31 31 31 31 32 34 36 37 37 37 37 37 37 38 39 40 41 41 42 42 42 42 43 43 44 45 45 46 47 48 49 49 50 51 52 54 55 55 55 55 55 55 54 55 55 56 57 55 54 53 53 53 53 52 51 50 49 47 46 45 43 40 38 37 36
31 28 27 29 34 37 36 33 31 28 26 24 25 26 28 28 28 29 29 29 29 29 30 31 33 34 35 36 36 36 36 36 37 38 39 40 40 40 40 40 40 40 41 42 43 43 45 45 46 48 49 50 51 52 53 54 55 55 55 54 53 53 52 52 51 52 53 52 52 53 53 53 53 52 51 49 47 47 48 46 43 41 40 38 37
21 20 22 26 29 29 27 25 24 22 22 24 25 26 26 27 27 28 28 28 28 29 30 32 33 34 35 35 35 35 35 36 37 38 38 38 38 38 38 38 39 39 40 41 41 42 42 43 44 46 47 49 51 52 53 54 54 53 52 51 50 49 49 48 47 47 48 48 49 52 53 52 52 52 51 49 47 48 48 47 44 42 41 40 39
16 17 19 21 22 21 21 21 21 22 23 24 25 25 25 26 26 27 27 27 28 30 31 32 33 34 34 34 35 35 36 36 37 37 37 37 37 36 36 37 38 38 39 40 40 40 40 41 42 44 45 47 49 51 51 51 50 48 46 45 44 43 42 41 41 41 41 41 42 45 49 51 51 51 51 50 49 49 49 46 44 42 41 41 40
17 18 18 19 20 20 20 21 21 22 23 23 24 24 25 25 26 26 27 28 29 30 31 32 32 33 33 34 34 35 36 36 36 36 36 35 35 35 36 37 37 38 39 39 39 39 39 40 41 42 44 45 47 49 50 49 46 42 37 35 34 32 31 30 30 32 34 34 33 34 38 44 49 51 51 49 48 49 49 47 44 42 41 41 41
17 18 19 19 20 20 20 20 21 22 22 22 23 24 24 25 25 26 27 28 29 30 30 31 32 32 33 34 34 35 35 35 35 35 34 33 34 34 36 37 38 39 39 38 38 38 39 40 41 41 43 44 47 50 49 47 41 32 27 28 27 23 21 18 17 20 25 28 29 31 35 38 41 45 48 51 50 47 46 46 45 43 41 40 39
18 18 18 19 19 19 19 20 20 21 21 22 23 24 24 25 25 26 27 28 28 29 30 30 31 32 33 33 34 34 34 34 33 32 32 32 33 34 36 38 38 38 38 37 38 38 39 40 40 41 43 44 48 50 48 44 36 24 21 26 25 17 13 10 11 13 17 21 24 29 34 35 37 39 41 46 50 49 46 43 42 41 39 38 38
17 18 18 18 18 18 19 19 20 20 21 22 23 23 24 24 25 26 27 27 28 29 29 30 31 31 32 33 33 33 32 31 31 30 30 32 33 34 36 37 37 37 37 37 38 38 39 40 40 41 43 45 48 51 47 41 31 19 18 24 22 14 8 6 9 9 12 17 21 25 28 31 36 39 39 40 44 47 46 43 40 40 40 40 40
17 17 17 18 18 18 18 19 19 20 21 22 22 23 24 24 25 26 27 27 28 28 29 29 30 31 31 32 31 31 30 29 29 29 30 31 33 34 36 36 36 36 37 37 38 38 39 39 40 41 44 45 48 51 47 39 28 16 15 22 22 15 9 9 10 6 7 13 19 23 25 27 33 39 41 40 40 43 43 42 41 40 40 40 40
17 17 17 17 17 17 18 18 19 20 21 22 22 23 24 25 25 26 26 27 27 28 28 29 30 30 30 30 29 28 27 27 27 28 30 31 32 33 34 35 35 36 36 36 37 37 38 39 40 41 44 45 47 51 49 41 29 15 13 19 22 17 10 14 15 6 1 3 10 16 21 24 29 37 41 42 42 41 40 40 40 40 39 39 38
17 17 17 17 17 17 18 19 20 20 21 22 23 24 25 25 25 25 25 26 27 27 28 29 29 29 28 28 26 25 25 25 26 27 28 29 30 31 32 32 33 34 34 35 36 36 37 39 40 41 43 44 46 49 49 45 34 19 15 17 19 18 10 14 20 14 5 1 3 6 11 16 20 28 36 41 44 44 41 40 40 41 40 39 38
17 17 17 17 17 18 19 19 20 21 22 23 24 24 24 24 24 24 25 25 26 27 27 28 27 27 26 25 23 23 23 24 25 26 26 27 28 29 30 31 31 32 33 33 34 36 37 39 40 40 41 41 43 46 48 47 39 27 17 16 15 16 14 8 15 17 13 6 2 3 5 8 10 15 22 31 39 41 39 37 36 38 39 40 40
17 17 17 17 18 18 19 20 21 22 22 23 23 23 23 23 23 24 24 25 26 26 26 26 25 24 23 22 21 21 21 22 23 24 25 26 27 28 29 29 30 31 32 33 34 35 37 38 38 37 38 39 41 43 45 46 43 35 25 17 15 14 14 12 11 15 16 14 12 9 7 5 5 7 9 15 23 30 34 34 34 36 38 40 42
17 17 17 17 18 19 20 20 21 22 22 22 22 22 22 22 23 23 24 25 25 25 25 24 23 22 20 19 19 19 20 21 22 23 24 26 27 27 28 29 30 31 31 32 33 35 36 36 36 36 36 37 38 40 42 44 45 41 33 24 17 17 17 15 13 13 14 13 13 14 14 10 5 4 5 7 11 18 26 29 31 33 36 39 41
17 17 17 18 18 19 20 21 21 21 21 21 21 21 21 22 22 23 24 24 24 23 23 22 21 19 18 17 17 18 19 20 21 23 24 25 26 27 28 28 29 30 30 31 33 34 34 35 35 35 35 36 37 38 39 41 43 43 40 32 23 19 18 18 16 14 14 14 12 9 12 15 13 10 8 7 7 11 16 19 21 25 30 34 38
17 17 18 18 19 20 20 20 20 20 20 20 20 20 21 22 22 23 23 23 23 22 21 20 18 17 16 15 16 17 18 19 21 22 23 25 26 27 27 28 28 29 30 31 31 32 33 33 34 34 34 35 35 37 38 38 40 41 42 39 32 24 18 16 17 16 15 15 14 11 9 10 12 12 12 11 11 11 11 14 15 17 20 23 27
17 17 18 18 19 20 20 19 19 19 18 19 20 20 21 22 22 23 23 22 22 21 19 18 16 15 14 14 15 16 17 18 20 21 22 24 25 26 27 27 27 28 29 30 30 31 32 33 33 34 34 34 34 35 36 37 38 38 39 40 39 35 28 21 17 16 17 17 17 15 12 9 7 7 8 9 11 13 13 13 12 10 10 13 15
17 17 18 19 19 19 19 18 17 17 18 19 19 20 21 21 22 22 21 21 20 19 18 16 14 13 13 13 14 15 17 18 19 21 22 23 25 25 26 26 27 28 28 29 29 30 31 32 33 33 34 34 34 34 34 35 36 36 37 38 39 39 37 32 25 19 16 16 16 17 16 15 12 10 9 8 8 9 11 13 14 14 12 11 13
17 18 18 18 18 18 17 16 16 17 18 18 19 20 20 20 21 20 20 19 18 17 15 13 12 11 11 12 13 15 16 18 19 21 22 23 24 25 26 27 27 28 28 28 28 29 30 31 32 33 33 33 33 33 33 33 33 34 35 35 36 36 36 36 34 30 25 20 17 16 16 17 16 15 14 13 13 12 12 13 13 13 13 12 12
17 18 18 18 17 16 15 15 16 16 17 17 18 19 19 19 19 18 18 17 15 13 12 11 10 10 10 11 13 15 16 18 19 21 22 23 24 25 26 26 27 27 27 28 28 28 29 30 31 32 33 33 33 33 33 32 32 32 33 33 34 34 34 34 34 34 33 29 25 21 18 16 16 15 14 15 15 16 17 17 17 17 16 15 14
17 18 17 16 15 14 14 15 15 16 16 17 17 18 18 17 16 16 14 12 11 10 9 9 8 9 10 12 13 14 16 18 19 20 22 23 24 25 26 26 27 27 27 28 28 28 28 29 30 31 32 33 33 34 33 33 32 32 31 31 32 32 32 32 32 32 32 32 31 29 26 23 20 18 16 15 15 15 16 18 19 20 20 20 20
17 17 16 15 14 14 14 14 15 15 16 16 16 16 16 15 13 12 10 8 7 7 7 7 8 9 10 11 13 14 16 17 19 20 21 22 24 25 26 26 27 27 28 28 28 28 28 28 29 30 30 31 32 33 34 33 33 32 32 31 30 30 31 31 31 30 30 30 30 29 29 28 27 24 22 20 18 17 15 15 16 18 19 20 21
17 16 15 14 14 13 13 14 14 14 15 15 14 14 13 12 10 8 7 6 6 6 6 7 8 10 11 12 13 14 16 17 18 20 21 22 24 25 26 27 27 27 28 28 28 28 29 29 29 29 29 30 30 31 32 32 33 32 32 31 30 29 29 29 29 29 28 28 28 28 28 28 27 27 27 25 24 22 20 18 16 15 15 16 18
17 16 15 14 13 13 13 13 13 13 13 13 12 11 10 8 7 6 5 5 5 6 6 7 9 10 12 13 14 15 17 18 19 20 22 23 24 25 26 26 27 28 28 28 29 29 29 29 29 29 28 29 29 29 30 31 31 31 31 31 30 29 29 28 27 27 27 27 27 27 27 26 26 26 26 25 25 25 24 23 21 19 17 15 14
16 15 14 13 13 13 13 13 12 12 11 10 9 8 7 6 5 4 4 5 5 6 7 8 10 11 12 14 15 16 18 19 20 21 22 23 24 25 26 27 27 28 28 29 29 29 29 29 29 29 29 28 28 28 28 29 29 30 30 30 30 30 29 29 28 27 27 26 26 26 25 25 25 24 24 24 24 24 23 23 23 22 21 20 18
16 14 13 12 12 12 12 11 11 9 9 8 7 6 5 4 4 4 5 5 6 7 8 9 11 12 13 15 16 17 18 19 21 22 23 24 25 25 26 27 28 28 29 29 30 30 30 30 30 29 29 29 29 28 28 28 28 29 29 29 29 29 29 29 28 28 27 26 25 25 24 24 23 23 23 23 22 22 22 22 22 21 21 21 21
15 13 12 12 12 11 11 10 9 8 7 6 5 5 5 5 5 5 6 7 8 9 10 11 12 13 14 15 16 18 19 20 21 23 24 25 26 27 27 28 28 29 29 30 30 30 31 31 31 30 30 29 29 29 29 28 28 28 28 28 29 29 29 29 29 28 28 27 26 25 25 24 23 22 22 22 22 21 21 21 21 21 21 20 20
14 13 12 12 11 11 10 9 8 7 6 5 5 5 6 6 7 7 8 8 9 10 11 12 13 14 15 16 17 19 20 21 23 24 25 26 27 28 29 29 29 30 30 30 30 30 30 31 31 31 31 31 30 29 29 29 28 28 28 28 28 28 28 28 28 28 28 28 27 27 26 25 24 23 22 21 21 21 21 21 20 20 20 20 20
14 13 13 12 11 10 9 8 8 7 6 6 6 7 7 8 8 9 9 10 11 12 13 14 15 16 17 18 19 20 21 22 24 25 26 27 28 29 30 31 31 31 31 31 31 30 30 30 30 31 31 31 31 30 30 29 28 28 28 28 28 28 28 28 28 28 28 28 27 27 27 26 25 24 23 22 22 21 21 20 20 20 20 19 19
14 14 13 12 11 10 9 9 8 8 8 8 8 8 9 9 10 11 11 12 13 14 15 16 17 18 19 20 21 22 23 24 25 26 27 28 29 30 31 32 32 33 33 33 32 32 31 30 30 30 30 31 31 31 31 30 29 28 28 27 28 28 28 28 28 28 28 28 27 27 27 27 26 26 25 24 23 22 21 21 20 20 20 20 20
15 14 13 12 11 10 10 10 10 10 10 10 11 11 11 12 12 13 14 14 15 17 18 18 19 20 21 22 23 24 25 25 26 27 29 30 31 32 32 33 33 34 34 34 34 34 33 32 31 30 30 30 30 31 31 31 31 30 29 28 27 27 27 27 27 27 28 28 27 27 27 27 27 27 26 25 25 24 23 22 21 21 20 20 20
16 15 14 13 12 12 12 12 12 12 13 13 13 14 14 15 15 16 16 17 18 19 20 21 22 23 24 25 25 26 27 28 29 29 30 31 32 33 34 34 34 34 34 35 35 35 35 34 34 32 31 30 30 30 31 31 31 31 30 29 28 27 27 27 27 27 27 27 27 27 27 27 27 27 27 27 26 25 25 24 23 22 22 21 21
17 16 15 15 14 14 13 13 14 14 15 16 16 17 17 17 18 18 19 20 21 22 23 24 24 25 26 27 28 29 30 30 31 32 33 33 34 35 35 35 35 35 35 35 35 35 36 36 35 35 34 33 31 31 30 31 31 32 32 31 30 29 28 28 28 27 27 27 27 27 27 27 27 27 27 27 27 27 26 25 24 24 23 22 22
18 17 17 16 16 15 15 15 16 17 17 18 19 19 19 20 20 21 22 23 23 24 25 26 26 27 28 29 30 31 32 33 34 34 35 36 36 37 37 37 37 36 36 36 36 36 36 36 36 36 36 35 34 33 31 31 31 32 32 32 32 31 30 29 29 28 28 27 27 27 27 27 27 27 27 27 27 27 27 26 26 25 24 24 23
19 19 18 18 17 17 17 17 18 19 19 20 21 21 22 22 23 23 24 25 25 26 27 28 29 30 30 31 32 33 34 35 36 37 37 38 38 38 38 39 39 38 38 37 37 37 37 37 37 36 36 36 36 35 34 33 32 32 33 33 33 32 31 30 30 30 29 28 28 28 27 27 27 27 27 27 27 27 27 27 27 27 26 25 25
Wind_Direction
251 252 255 258 261 263 267 271 274 278 281 284 287 288 291 294 296 298 300 301 301 302 303 304 303 303 304 304 304 303 302 302 301 300 299 299 298 298 297 296 295 294 293 293 293 292 292 292 291 291 291 290 290 289 289 289 289 290 289 289 291 291 292 292 291 291 290 290 290 285 279 275 271 271 273 264 248 243 245 246 244 243 244 244 244
253 255 255 257 260 263 266 270 274 279 283 285 288 290 293 295 297 299 300 301 302 304 305 304 304 304 305 306 305 304 303 303 302 301 300 300 299 298 297 296 295 294 293 292 292 291 290 290 289 289 289 288 288 288 287 286 286 286 287 286 287 288 289 290 290 290 289 287 288 287 283 280 277 274 275 271 255 245 247 250 251 250 248 246 245
255 257 258 259 261 264 267 272 276 280 283 286 288 291 293 295 297 299 301 302 303 305 305 305 305 306 307 307 307 306 305 304 303 302 301 300 299 298 296 295 294 293 292 291 291 290 289 288 288 287 287 287 286 286 286 285 284 283 283 283 283 283 284 286 288 289 288 286 284 285 284 283 282 277 274 272 262 251 250 251 252 253 253 253 251
254 254 258 260 262 265 269 274 277 280 283 286 288 290 292 295 297 299 301 303 304 305 306 305 306 307 308 308 307 307 306 305 304 303 302 300 299 298 296 295 294 293 292 291 290 289 288 287 286 286 285 285 285 285 284 284 284 283 281 280 280 280 280 281 283 285 285 285 283 282 283 283 283 280 273 270 265 255 253 251 249 251 255 258 255
259 257 259 262 264 267 270 274 277 279 282 285 287 289 292 294 297 299 301 303 305 306 305 305 307 308 308 307 307 306 305 305 303 302 301 300 299 298 296 295 294 293 292 291 290 289 288 287 286 285 285 284 284 283 283 282 282 282 281 280 278 277 277 276 278 280 281 281 281 280 280 280 282 281 275 269 265 259 256 253 250 251 255 258 255
262 262 262 263 265 268 270 273 275 277 280 282 285 288 291 294 297 299 302 304 305 305 305 305 306 306 306 306 306 306 305 304 303 302 301 300 299 299 298 297 296 295 295 294 293 292 290 289 288 287 286 285 284 283 282 281 281 280 280 279 278 277 275 274 274 275 277 277 277 277 278 278 279 280 277 271 264 261 261 256 251 252 256 258 253
263 265 265 266 267 268 270 272 273 275 278 280 284 288 290 293 297 300 302 304 305 305 305 305 305 305 306 307 306 306 305 304 304 303 302 302 302 301 301 300 299 298 297 296 295 294 293 292 291 290 288 287 285 284 283 281 280 279 278 278 277 276 275 273 272 271 273 274 273 273 274 275 275 277 277 274 267 263 263 261 256 256 258 256 250
266 266 267 268 268 269 270 270 271 274 276 280 283 287 290 293 296 300 302 304 305 305 304 305 305 306 307 307 306 306 305 305 305 305 304 304 303 303 302 301 300 299 298 297 296 295 294 293 292 291 290 288 287 285 283 281 279 278 277 276 275 275 274 272 271 269 269 270 270 270 271 271 272 273 275 274 272 267 263 263 263 262 260 254 245
269 270 270 270 269 268 269 269 270 272 275 279 282 285 289 293 296 299 302 303 303 303 304 304 306 307 307 307 306 305 305 305 305 305 304 303 303 302 301 300 299 298 297 296 295 294 293 292 291 291 290 289 289 287 286 284 281 279 276 275 274 273 272 271 270 268 267 267 268 268 268 268 268 270 271 272 272 270 264 261 262 264 265 258 244
276 276 274 273 271 270 269 268 270 272 275 278 281 285 288 291 295 299 301 301 302 302 303 305 307 307 307 306 305 305 305 305 304 304 303 303 303 302 301 300 298 297 296 295 294 293 292 292 291 290 290 289 289 288 288 287 285 283 280 276 273 271 269 269 268 267 266 265 265 265 266 266 266 266 268 269 270 270 266 261 259 261 264 263 248
278 277 276 274 272 270 268 268 269 271 273 277 280 284 287 290 294 297 299 300 300 302 304 306 307 307 306 305 305 305 305 305 305 305 305 304 304 302 301 300 298 297 296 296 295 295 294 293 292 292 291 290 289 288 287 287 286 285 283 281 277 273 269 266 265 265 265 263 263 263 263 263 263 263 265 266 267 268 268 264 259 258 259 262 255
279 278 275 272 270 267 265 265 267 269 272 276 279 282 286 290 294 296 297 298 300 302 305 306 306 306 305 305 306 306 306 306 306 306 306 305 304 303 302 301 300 300 299 298 298 297 297 296 295 294 293 292 291 289 288 287 286 285 283 282 280 277 273 269 264 262 262 261 260 260 261 261 261 261 261 263 264 265 267 266 262 258 256 258 259
279 278 273 268 265 264 263 263 265 268 270 274 277 280 285 290 292 294 296 298 301 304 305 306 305 305 305 305 306 306 306 307 307 307 307 306 306 305 304 304 303 303 302 302 301 300 300 299 299 298 297 295 294 292 290 289 287 285 284 282 280 278 275 272 268 263 260 258 258 257 257 258 258 258 258 260 262 262 263 265 264 261 257 256 258
278 278 274 268 262 260 259 260 262 265 268 271 275 280 285 288 291 293 296 299 302 304 304 305 304 305 305 305 306 307 307 308 308 308 308 308 307 307 307 306 306 306 305 305 305 304 303 303 302 301 300 299 297 295 293 291 289 287 284 282 280 278 275 273 270 266 261 258 255 254 253 254 255 256 256 257 259 260 260 262 262 262 261 256 254
278 278 278 272 263 257 254 254 257 260 264 269 274 280 284 287 290 293 297 300 302 303 303 303 304 304 305 305 307 308 309 309 309 309 309 309 309 308 308 308 308 308 308 308 307 306 306 305 304 303 302 302 300 299 297 294 292 289 286 283 280 277 275 272 269 267 263 259 255 253 251 250 251 253 253 254 256 258 258 260 261 262 261 257 253
278 279 279 276 266 257 251 249 252 257 263 269 275 280 284 288 291 294 298 300 301 302 302 302 303 303 305 307 308 309 309 309 309 309 310 309 310 310 310 310 310 310 310 310 309 309 308 307 306 305 304 303 302 301 300 298 295 293 290 286 283 278 275 271 267 265 262 258 255 252 250 248 248 249 251 252 253 255 256 258 259 259 259 258 256
278 277 276 273 265 256 250 250 255 261 267 272 278 283 286 289 293 295 298 300 300 300 300 301 302 304 306 308 309 309 309 309 309 309 310 310 310 311 312 312 313 313 313 313 313 312 312 311 310 309 308 307 305 304 303 301 299 297 293 290 286 281 276 271 267 263 260 257 253 250 249 247 245 246 247 250 251 253 255 255 256 256 256 255 255
273 273 270 266 260 255 254 257 262 267 273 278 283 286 288 291 294 296 298 298 298 299 300 302 304 306 308 308 308 308 308 309 309 309 310 311 312 313 314 315 315 316 316 316 317 317 316 316 315 314 313 312 311 309 308 306 304 301 298 293 288 282 277 271 266 262 258 255 250 247 246 245 244 243 244 246 249 251 252 252 252 252 252 253 253
266 267 263 259 257 257 260 264 268 274 279 283 285 287 290 292 295 296 296 296 297 299 301 304 306 307 307 308 308 308 308 308 309 310 311 313 314 315 316 317 317 319 320 320 321 320 320 319 319 318 318 316 315 313 312 311 309 305 300 294 288 282 276 270 264 260 256 252 248 245 243 243 242 241 241 242 244 246 248 250 250 251 250 251 252
265 263 259 258 259 262 266 270 276 280 282 284 286 289 291 293 294 294 294 296 298 301 303 306 306 307 307 307 307 307 307 308 310 312 313 314 315 316 318 319 320 322 323 323 323 322 322 323 322 322 321 319 318 318 318 317 314 309 303 296 290 285 278 270 263 256 251 247 246 243 241 241 240 239 239 240 241 244 247 249 249 250 250 250 251
268 264 264 265 267 270 273 276 279 281 283 285 288 290 291 292 292 293 294 297 300 303 305 306 306 307 307 306 306 307 308 310 311 313 314 315 317 319 321 322 324 326 326 326 326 326 326 326 326 325 324 324 326 327 327 326 322 316 310 305 299 292 283 272 262 253 244 237 237 239 238 238 238 238 238 238 240 243 246 248 249 250 251 250 249
270 268 268 268 269 272 275 278 280 282 285 288 289 290 290 291 292 293 296 300 303 304 305 306 306 306 306 305 306 307 309 311 312 314 316 318 320 322 325 327 328 328 328 329 330 331 331 330 330 329 329 332 335 337 337 334 328 324 325 326 319 305 288 270 252 246 239 231 231 235 235 234 235 238 238 239 240 243 245 247 248 248 250 249 248
271 270 268 268 271 273 275 279 281 285 287 288 288 289 289 290 293 296 299 302 303 304 305 305 305 305 305 306 307 309 311 313 314 317 319 322 325 327 329 331 331 331 332 333 334 335 335 335 335 336 338 341 343 345 344 340 334 331 337 341 337 318 292 254 223 232 236 229 231 237 237 233 231 235 239 240 240 241 243 245 246 245 247 249 249
268 266 267 269 272 274 278 282 285 287 287 287 287 288 289 292 295 298 301 302 303 304 305 304 304 305 306 308 310 312 313 315 317 321 323 326 329 331 333 333 333 334 336 337 338 339 339 340 342 344 346 349 350 351 350 346 340 332 335 345 343 322 292 220 200 221 228 227 232 237 239 237 230 230 235 239 240 240 241 243 245 246 248 250 250
265 266 269 272 276 279 283 285 286 286 286 286 287 288 291 295 297 300 301 302 303 304 304 304 305 307 308 310 312 313 316 318 321 325 327 331 333 334 334 335 336 339 341 342 343 343 344 346 349 351 353 354 355 356 356 352 346 333 333 351 351 328 284 219 210 214 200 219 231 230 232 237 232 229 232 236 239 241 241 242 244 245 248 250 251
265 269 273 276 280 283 284 285 285 285 285 286 288 291 294 297 298 300 301 302 303 304 304 305 307 309 310 312 314 316 319 322 326 329 332 334 335 335 336 338 340 343 344 344 346 347 349 352 354 355 357 358 359 0 1 358 354 340 326 345 354 342 292 240 239 257 91 220 241 230 228 234 233 231 234 235 238 240 241 241 243 244 246 249 249
270 274 278 281 284 284 285 285 284 284 285 288 290 293 295 296 298 300 301 302 303 304 305 307 309 311 312 314 316 319 322 325 329 332 334 335 335 336 338 341 343 345 346 346 348 351 354 357 359 359 0 1 2 4 5 3 0 347 317 323 345 355 327 254 253 273 305 314 274 255 242 234 228 230 234 236 239 241 242 243 244 244 247 249 249
275 278 280 283 283 283 284 283 283 284 286 288 291 292 294 296 298 300 302 303 304 305 307 309 311 313 314 317 319 321 324 328 331 333 334 334 336 338 340 343 345 346 347 348 351 355 358 0 1 1 2 3 5 7 8 8 6 359 338 317 325 352 1 312 280 292 300 289 305 329 281 243 227 229 232 232 234 236 238 240 242 244 245 247 247
276 278 279 280 280 280 281 281 281 284 286 288 291 292 294 297 299 301 302 304 305 307 309 311 314 315 317 319 320 322 326 328 330 332 333 335 338 340 342 344 346 347 349 351 355 359 1 2 1 1 2 5 7 9 11 12 11 8 360 338 313 323 349 354 335 327 319 300 291 300 304 275 238 241 242 233 232 234 234 234 236 238 241 244 245
274 275 276 277 278 278 278 280 282 284 286 288 291 293 296 299 300 302 304 305 308 310 312 314 316 317 318 319 321 323 326 328 330 333 335 337 340 342 343 345 347 349 351 354 358 1 2 1 1 1 3 5 8 10 12 15 16 15 12 2 336 319 327 339 348 352 347 330 308 295 297 300 284 251 245 238 232 231 230 231 234 237 239 242 243
273 274 275 275 275 276 278 280 282 284 287 289 292 295 298 300 301 302 305 307 310 312 314 316 317 317 318 319 320 322 325 329 333 337 339 340 342 344 345 347 349 350 352 356 360 1 1 1 1 2 4 5 8 11 13 15 18 20 20 16 5 344 332 332 337 343 349 353 351 330 308 304 303 297 286 272 254 231 219 222 232 236 237 241 245
271 272 273 273 274 275 278 280 282 285 287 291 294 297 299 300 302 304 307 310 312 314 315 316 316 316 317 317 319 323 328 333 338 340 341 343 344 346 347 348 349 351 354 358 -0 1 1 2 3 4 5 6 8 11 13 15 17 20 23 23 21 14 358 339 331 330 332 336 344 350 340 318 306 303 298 289 283 270 238 220 218 215 215 227 240
269 270 270 272 274 276 278 280 282 286 290 293 296 298 300 302 305 308 311 313 314 315 315 315 315 315 316 318 322 327 332 338 341 342 344 346 347 347 348 349 351 353 356 357 359 360 1 3 4 5 6 7 9 10 12 15 16 19 22 24 26 26 23 12 353 338 330 325 324 326 329 327 317 309 303 290 282 279 269 255 249 237 221 226 241
268 269 270 271 273 275 277 279 283 288 292 295 297 299 302 306 309 312 313 314 315 314 314 313 314 315 318 321 326 332 337 341 343 345 347 348 349 349 350 352 354 355 356 357 358 359 1 3 5 6 7 9 10 10 12 14 15 17 20 22 25 27 29 28 24 12 354 337 327 320 317 315 311 304 303 303 298 292 288 285 287 290 287 276 272
266 268 269 270 271 273 276 280 285 289 292 295 298 302 306 309 311 312 313 313 313 312 311 312 314 316 320 326 332 336 341 344 346 348 349 350 350 351 352 355 356 356 357 357 357 358 -0 2 4 6 8 9 10 11 12 13 14 16 18 20 22 25 27 29 31 30 26 14 358 341 327 320 315 307 299 297 296 297 298 300 302 305 306 300 289
263 266 267 268 269 272 275 280 285 289 292 297 301 305 308 311 311 312 312 311 310 310 311 314 316 321 327 334 338 341 345 347 348 350 351 351 352 354 355 356 357 357 357 357 357 357 359 0 3 5 7 9 10 11 12 12 13 14 16 18 19 22 24 26 28 30 31 30 25 16 2 346 335 327 317 305 298 293 291 291 293 296 299 299 297
261 263 264 265 266 270 275 281 286 290 294 299 303 307 310 311 311 311 311 311 311 313 315 318 323 330 336 340 342 345 348 350 351 352 353 353 354 356 357 358 358 358 358 358 358 358 358 359 1 3 5 7 8 10 11 12 12 12 14 15 16 18 20 22 24 26 28 30 31 29 24 17 7 356 345 333 321 309 299 293 289 287 286 285 285
258 258 258 260 264 270 276 282 287 291 296 301 306 309 310 311 312 312 313 316 318 321 323 327 333 337 340 343 345 347 349 351 352 353 353 354 355 357 358 358 358 359 359 359 358 358 358 358 360 1 2 4 6 7 9 10 11 12 12 12 13 14 15 17 19 21 22 25 27 28 29 28 25 20 13 4 355 343 330 317 305 296 290 285 281
252 252 253 257 263 271 277 283 288 293 299 304 308 310 312 313 314 316 320 327 330 331 333 336 338 340 341 344 346 348 349 351 352 352 353 354 355 357 357 358 358 358 358 359 359 358 359 358 359 359 360 1 2 4 6 7 9 10 11 11 11 11 11 12 14 15 17 19 21 22 23 25 26 26 24 21 17 12 6 358 346 330 315 302 292
247 248 251 257 265 272 278 283 289 296 302 307 310 313 315 316 319 324 331 337 340 339 339 340 341 342 343 344 345 347 349 350 351 352 353 354 355 356 356 356 356 357 357 357 358 358 358 358 358 358 358 359 359 0 2 4 6 7 8 9 10 10 10 9 9 10 12 13 15 16 17 19 20 21 22 22 22 21 19 17 14 8 358 345 327
243 245 251 259 266 272 277 284 292 299 304 308 312 315 317 320 326 333 337 340 340 341 340 340 342 342 343 344 345 347 348 349 350 351 353 353 354 354 354 354 355 355 355 355 356 356 357 357 357 357 357 357 357 357 358 359 1 3 4 6 7 8 8 9 8 7 7 8 8 9 11 12 13 15 16 17 17 18 18 18 18 17 16 13 7
241 244 252 259 265 271 278 286 294 300 304 308 310 313 317 322 327 331 335 335 336 336 337 338 340 341 342 343 345 345 346 348 349 350 350 351 351 352 352 352 352 353 353 353 353 354 354 354 355 355 356 355 355 355 355 355 356 358 359 1 2 4 5 6 6 6 5 4 4 3 4 4 6 7 8 10 11 11 12 12 12 12 13 13 14
239 245 252 258 263 271 279 286 292 296 300 303 306 308 314 319 322 325 328 329 328 331 332 334 336 338 339 340 341 342 343 344 345 346 347 347 348 348 348 349 349 349 349 350 351 351 351 351 351 352 352 353 353 353 352 352 352 353 354 355 357 359 0 1 2 3 3 2 2 0 359 358 358 359 360 1 3 4 5 6 6 6 6 6 7
238 245 251 255 262 271 278 282 286 290 292 293 298 303 309 314 317 319 321 323 324 326 328 329 332 334 335 336 337 338 338 339 340 341 342 342 343 343 344 344 344 345 345 346 346 347 347 347 347 347 348 349 349 350 350 350 350 349 349 350 351 352 354 356 357 358 358 359 359 359 357 356 354 353 352 352 353 354 356 358 359 359 360 360 360
239 245 249 254 261 268 273 276 280 283 284 287 292 298 302 307 311 313 316 318 319 321 323 325 327 329 330 331 332 333 334 334 335 335 336 337 337 338 338 339 339 339 340 340 341 342 342 343 343 343 343 344 344 345 346 346 346 346 346 346 346 347 348 349 351 352 353 354 354 354 354 354 353 351 349 347 346 346 347 348 349 350 351 352 353
239 244 248 253 259 264 267 270 272 275 279 283 288 294 298 301 305 308 311 313 315 317 319 320 322 324 325 326 327 328 329 330 330 330 331 331 332 332 333 333 334 334 334 335 335 336 337 338 338 339 339 339 339 340 341 341 342 342 343 343 342 342 343 343 344 346 347 348 349 349 349 350 350 349 348 346 344 342 341 340 340 341 342 343 344
238 242 246 252 257 260 262 264 266 270 275 280 285 290 294 298 301 304 307 309 312 314 315 317 318 320 321 322 323 323 324 325 325 326 326 326 326 327 328 328 329 329 329 330 330 331 331 332 333 333 334 334 334 334 335 336 336 337 337 338 338 338 338 338 339 340 341 342 343 343 344 344 345 344 344 344 342 341 339 336 335 334 334 335 336
238 241 246 251 255 259 262 263 265 268 272 277 282 287 291 295 299 302 305 307 309 311 312 314 315 316 317 318 318 319 320 320 320 321 321 321 321 322 323 323 324 325 325 325 326 326 327 327 328 328 329 329 330 330 330 330 331 331 332 332 333 333 333 333 333 334 335 336 337 338 339 339 340 340 340 339 339 339 337 335 333 331 329 329 328
238 241 246 250 254 259 262 264 266 269 272 275 280 284 289 293 297 300 302 304 306 308 309 310 311 312 313 314 315 315 316 316 317 317 318 318 318 318 318 319 320 320 320 321 321 322 322 323 323 324 324 325 325 325 325 325 325 325 326 326 327 328 328 328 328 329 330 331 331 332 333 334 334 335 335 335 335 335 335 334 332 330 328 326 324
239 242 246 250 254 258 262 265 268 271 273 276 281 285 288 292 295 297 299 301 303 304 306 307 308 309 309 310 311 312 312 313 314 314 315 315 315 315 315 315 316 316 317 317 317 318 318 319 319 319 320 320 321 321 321 321 320 320 320 321 322 322 323 323 323 323 324 325 326 327 328 329 329 330 330 330 330 330 330 330 330 328 326 324 322
241 245 248 252 256 259 262 266 269 273 276 280 283 286 289 291 293 295 297 298 300 301 302 303 304 305 306 306 307 309 309 310 311 312 312 312 312 312 312 312 313 313 314 314 314 315 315 316 316 316 316 316 317 317 317 317 316 316 315 316 316 317 318 318 318 318 318 319 321 322 323 324 325 325 326 326 326 326 326 326 326 325 324 323 321
Height
5797 5797 5797 5797 5798 5798 5798 5798 5798 5798 5798 5798 5798 5797 5797 5796 5796 5796 5795 5794 5793 5792 5790 5789 5787 5785 5784 5782 5781 5779 5777 5776 5774 5772 5771 5769 5768 5766 5765 5763 5761 5760 5758 5756 5755 5753 5751 5749 5747 5746 5744 5743 5742 5740 5739 5737 5736 5735 5734 5733 5732 5730 5727 5725 5725 5726 5726 5722 5719 5718 5716 5715 5714 5714 5713 5713 5714 5716 5717 5718 5719 5721 5722 5724 5725
5795 5795 5795 5795 5795 5795 5795 5795 5795 5795 5795 5795 5794 5794 5794 5793 5793 5792 5791 5790 5789 5788 5786 5785 5783 5782 5780 5778 5777 5775 5773 5772 5770 5768 5767 5765 5764 5762 5760 5759 5757 5755 5753 5751 5749 5748 5746 5744 5742 5741 5739 5738 5736 5735 5733 5732 5731 5730 5729 5727 5727 5725 5722 5720 5719 5720 5721 5719 5716 5714 5712 5710 5709 5709 5708 5708 5709 5710 5711 5712 5714 5715 5716 5718 5719
5792 5792 5792 5793 5793 5792 5792 5792 5792 5792 5792 5792 5791 5791 5790 5790 5789 5789 5788 5786 5785 5784 5782 5781 5779 5778 5776 5774 5772 5771 5769 5767 5766 5764 5762 5761 5759 5757 5755 5754 5752 5750 5748 5746 5744 5742 5741 5739 5737 5735 5734 5732 5731 5729 5727 5726 5725 5725 5724 5722 5721 5720 5718 5715 5713 5713 5715 5715 5712 5710 5709 5706 5705 5704 5704 5704 5704 5705 5706 5708 5709 5710 5710 5712 5713
5789 5790 5790 5790 5790 5790 5790 5790 5790 5789 5789 5788 5788 5788 5787 5787 5786 5785 5784 5783 5781 5780 5778 5777 5775 5773 5772 5770 5768 5767 5765 5763 5761 5760 5758 5756 5754 5753 5751 5749 5747 5745 5743 5741 5739 5737 5735 5734 5732 5730 5728 5727 5725 5723 5722 5720 5719 5718 5718 5716 5715 5714 5713 5711 5709 5707 5708 5710 5709 5706 5705 5703 5701 5700 5699 5699 5700 5700 5701 5702 5704 5705 5705 5707 5708
5786 5787 5787 5787 5787 5787 5787 5787 5787 5786 5786 5785 5785 5785 5784 5784 5783 5782 5780 5779 5777 5776 5774 5773 5771 5770 5768 5766 5765 5763 5761 5759 5757 5755 5754 5752 5750 5748 5746 5744 5742 5740 5738 5736 5734 5732 5730 5728 5726 5724 5723 5721 5719 5718 5716 5714 5713 5712 5711 5710 5709 5708 5707 5706 5704 5702 5701 5703 5704 5702 5700 5699 5697 5696 5695 5695 5695 5695 5696 5697 5698 5699 5700 5701 5702
5783 5784 5784 5784 5784 5784 5784 5784 5784 5783 5783 5782 5782 5782 5781 5780 5779 5778 5777 5775 5774 5772 5771 5769 5768 5766 5764 5763 5761 5759 5757 5755 5753 5751 5749 5747 5745 5743 5740 5738 5736 5734 5732 5730 5728 5726 5724 5722 5720 5718 5716 5715 5713 5711 5710 5708 5707 5705 5704 5703 5702 5701 5701 5700 5698 5696 5695 5696 5697 5697 5695 5693 5692 5692 5691 5690 5690 5690 5691 5691 5692 5693 5693 5694 5695
5780 5780 5781 5781 5781 5781 5781 5781 5780 5780 5780 5779 5779 5778 5778 5777 5776 5775 5773 5772 5770 5768 5767 5766 5764 5762 5760 5759 5757 5755 5753 5750 5749 5746 5744 5742 5740 5738 5735 5733 5730 5728 5726 5724 5721 5719 5717 5715 5713 5711 5709 5708 5706 5704 5703 5702 5700 5699 5697 5696 5695 5694 5694 5693 5692 5691 5689 5689 5690 5691 5690 5689 5688 5687 5686 5685 5685 5686 5685 5685 5686 5687 5687 5687 5689
5777 5777 5778 5778 5778 5778 5778 5777 5777 5777 5776 5776 5776 5775 5774 5773 5772 5771 5769 5768 5766 5765 5763 5762 5760 5758 5756 5754 5752 5750 5748 5746 5744 5741 5739 5737 5735 5732 5729 5727 5724 5722 5720 5717 5715 5713 5711 5708 5706 5704 5702 5700 5698 5696 5695 5694 5693 5692 5690 5689 5688 5687 5687 5686 5685 5684 5683 5682 5683 5684 5684 5683 5683 5682 5681 5680 5680 5680 5680 5680 5681 5681 5681 5681 5682
5774 5775 5775 5775 5774 5774 5774 5774 5774 5773 5773 5773 5772 5771 5770 5769 5768 5767 5766 5764 5762 5761 5760 5758 5756 5754 5752 5750 5748 5746 5744 5742 5739 5737 5734 5732 5730 5727 5724 5722 5719 5717 5714 5711 5709 5707 5704 5702 5700 5697 5695 5692 5690 5688 5686 5684 5683 5683 5683 5681 5680 5680 5679 5679 5678 5677 5677 5676 5676 5677 5677 5677 5678 5677 5675 5675 5675 5675 5674 5675 5675 5675 5674 5674 5675
5772 5772 5772 5771 5771 5771 5771 5770 5770 5770 5769 5769 5768 5768 5767 5766 5765 5763 5762 5760 5759 5757 5756 5754 5752 5750 5748 5746 5744 5742 5739 5737 5734 5732 5730 5727 5725 5722 5719 5717 5714 5711 5709 5706 5703 5701 5698 5696 5693 5691 5689 5686 5683 5680 5678 5675 5673 5672 5672 5672 5672 5672 5671 5671 5670 5669 5669 5669 5670 5670 5670 5671 5671 5671 5670 5669 5669 5669 5669 5670 5670 5669 5669 5669 5670
5768 5768 5768 5767 5767 5767 5767 5767 5766 5766 5766 5765 5765 5764 5763 5762 5761 5760 5758 5757 5755 5753 5751 5749 5747 5745 5743 5741 5739 5737 5735 5732 5729 5727 5724 5721 5719 5716 5714 5711 5708 5706 5703 5700 5698 5695 5692 5690 5687 5685 5682 5680 5677 5674 5671 5668 5666 5663 5662 5661 5661 5661 5662 5662 5662 5661 5661 5662 5663 5663 5663 5664 5664 5664 5664 5664 5663 5663 5664 5664 5664 5664 5665 5665 5666
5764 5764 5764 5763 5763 5763 5763 5763 5763 5762 5762 5762 5761 5760 5759 5759 5757 5756 5754 5753 5751 5749 5747 5745 5743 5741 5739 5737 5735 5732 5730 5727 5724 5722 5719 5716 5713 5711 5708 5705 5703 5700 5697 5695 5692 5689 5686 5683 5680 5677 5675 5672 5670 5667 5664 5661 5659 5656 5653 5651 5650 5650 5650 5652 5653 5653 5653 5653 5655 5656 5656 5656 5657 5657 5658 5658 5657 5658 5658 5658 5659 5659 5660 5661 5661
5760 5760 5759 5759 5759 5759 5759 5759 5759 5759 5758 5758 5757 5757 5756 5755 5754 5752 5751 5749 5746 5744 5742 5740 5738 5736 5734 5732 5730 5727 5725 5722 5719 5716 5713 5711 5708 5705 5702 5700 5697 5694 5691 5688 5686 5683 5679 5676 5673 5670 5667 5664 5662 5659 5656 5654 5651 5648 5645 5643 5641 5639 5639 5640 5642 5644 5644 5644 5645 5648 5648 5648 5648 5650 5651 5652 5652 5652 5652 5652 5653 5654 5655 5656 5656
5756 5756 5755 5755 5755 5755 5755 5755 5755 5755 5754 5754 5753 5753 5752 5751 5750 5748 5746 5744 5742 5740 5738 5736 5734 5732 5730 5727 5725 5723 5720 5717 5714 5711 5708 5705 5703 5700 5697 5694 5691 5688 5685 5682 5679 5675 5672 5669 5666 5662 5659 5656 5653 5650 5647 5645 5643 5640 5637 5634 5632 5630 5629 5629 5630 5632 5634 5635 5636 5638 5639 5639 5640 5642 5644 5645 5645 5645 5646 5646 5647 5649 5649 5650 5650
5752 5752 5751 5751 5751 5750 5750 5750 5750 5750 5750 5750 5749 5749 5748 5747 5746 5744 5742 5740 5738 5736 5734 5732 5730 5728 5725 5723 5721 5718 5715 5712 5710 5707 5704 5701 5698 5695 5692 5688 5685 5681 5678 5675 5672 5669 5665 5662 5658 5655 5652 5648 5644 5641 5638 5635 5633 5630 5627 5625 5622 5620 5618 5618 5618 5619 5622 5625 5626 5628 5630 5631 5632 5634 5636 5637 5638 5639 5640 5640 5642 5643 5644 5644 5645
5748 5747 5747 5746 5746 5745 5745 5745 5746 5746 5746 5746 5746 5745 5744 5743 5742 5740 5738 5736 5734 5732 5730 5728 5725 5723 5721 5719 5716 5714 5711 5708 5705 5702 5699 5696 5693 5690 5687 5683 5680 5676 5673 5669 5666 5662 5659 5656 5652 5648 5645 5641 5637 5633 5629 5626 5623 5619 5616 5614 5611 5609 5607 5606 5607 5607 5609 5613 5616 5618 5621 5622 5624 5626 5628 5629 5631 5633 5634 5635 5636 5638 5638 5639 5640
5743 5743 5742 5742 5742 5741 5741 5742 5742 5742 5743 5742 5742 5741 5740 5739 5738 5736 5734 5732 5730 5728 5726 5724 5721 5719 5717 5715 5712 5710 5707 5705 5702 5699 5696 5692 5689 5686 5683 5679 5675 5672 5668 5664 5661 5657 5653 5649 5646 5642 5638 5634 5630 5626 5621 5617 5613 5609 5605 5602 5599 5597 5596 5595 5595 5596 5598 5601 5605 5608 5610 5613 5616 5618 5620 5622 5625 5627 5628 5629 5630 5631 5633 5634 5635
5739 5738 5738 5738 5738 5738 5739 5740 5740 5740 5739 5739 5738 5737 5736 5735 5734 5732 5730 5728 5726 5724 5722 5720 5718 5715 5713 5711 5709 5706 5704 5701 5698 5695 5692 5689 5686 5682 5679 5675 5671 5668 5664 5660 5656 5652 5648 5643 5639 5635 5631 5626 5622 5618 5613 5608 5603 5599 5594 5590 5587 5584 5583 5583 5584 5585 5587 5590 5594 5597 5600 5603 5607 5610 5613 5616 5620 5621 5621 5622 5624 5625 5627 5629 5631
5735 5735 5735 5736 5736 5736 5737 5737 5737 5736 5735 5735 5734 5734 5732 5731 5729 5728 5726 5724 5723 5721 5718 5716 5714 5712 5709 5707 5705 5703 5700 5697 5695 5692 5688 5685 5682 5679 5675 5672 5668 5664 5660 5656 5652 5648 5643 5639 5634 5629 5625 5620 5615 5610 5605 5600 5594 5588 5583 5579 5575 5572 5571 5571 5573 5574 5577 5580 5584 5587 5590 5594 5598 5602 5605 5609 5612 5613 5614 5615 5617 5619 5621 5624 5625
5733 5733 5733 5733 5734 5734 5734 5733 5733 5733 5732 5732 5731 5730 5728 5727 5725 5724 5722 5720 5719 5717 5714 5712 5710 5708 5706 5704 5702 5699 5697 5694 5691 5688 5685 5682 5679 5675 5672 5668 5664 5661 5657 5652 5648 5644 5639 5635 5630 5625 5620 5614 5608 5603 5597 5591 5585 5578 5573 5568 5564 5562 5560 5561 5562 5565 5568 5572 5576 5579 5582 5586 5590 5594 5598 5601 5604 5606 5607 5609 5611 5613 5616 5618 5619
5730 5730 5731 5731 5731 5731 5730 5730 5730 5730 5729 5728 5727 5726 5724 5723 5722 5720 5718 5717 5715 5713 5711 5709 5707 5705 5702 5700 5698 5696 5693 5691 5688 5685 5682 5679 5675 5672 5668 5664 5661 5657 5653 5648 5644 5640 5635 5631 5626 5621 5615 5609 5603 5596 5589 5583 5576 5570 5565 5560 5557 5554 5553 5553 5555 5558 5561 5566 5570 5573 5576 5579 5582 5586 5591 5594 5597 5599 5601 5603 5605 5608 5610 5612 5614
5728 5728 5728 5728 5728 5728 5728 5727 5727 5726 5725 5724 5723 5722 5721 5719 5718 5716 5715 5713 5711 5709 5707 5705 5703 5701 5699 5697 5695 5692 5690 5687 5684 5682 5679 5676 5672 5668 5664 5660 5657 5653 5649 5644 5640 5636 5631 5627 5622 5616 5611 5605 5598 5591 5584 5577 5570 5565 5561 5557 5553 5550 5549 5549 5552 5554 5557 5561 5565 5568 5570 5573 5577 5581 5585 5588 5591 5593 5595 5597 5600 5602 5604 5606 5608
5724 5724 5725 5725 5725 5725 5724 5724 5724 5722 5721 5720 5719 5718 5717 5716 5714 5713 5711 5709 5707 5706 5704 5702 5700 5698 5696 5694 5691 5689 5686 5684 5681 5678 5675 5672 5668 5665 5660 5656 5653 5649 5645 5641 5637 5632 5628 5623 5617 5612 5606 5600 5594 5587 5580 5573 5567 5563 5560 5556 5552 5549 5547 5548 5550 5552 5554 5557 5561 5563 5566 5569 5573 5576 5579 5582 5585 5587 5590 5592 5594 5596 5598 5600 5602
5721 5721 5722 5722 5722 5721 5721 5720 5719 5718 5717 5717 5716 5715 5714 5712 5711 5709 5707 5706 5704 5703 5701 5699 5697 5695 5693 5690 5688 5685 5683 5680 5678 5675 5672 5668 5665 5661 5657 5653 5649 5645 5641 5637 5633 5629 5624 5619 5614 5609 5603 5597 5591 5584 5577 5571 5566 5562 5559 5556 5552 5550 5548 5548 5550 5552 5553 5556 5558 5560 5562 5565 5568 5571 5574 5576 5579 5581 5584 5586 5589 5591 5593 5595 5596
5718 5718 5719 5718 5718 5718 5717 5716 5715 5715 5714 5713 5712 5711 5710 5709 5707 5706 5704 5703 5701 5699 5698 5696 5694 5691 5689 5687 5684 5682 5680 5677 5674 5671 5668 5665 5661 5658 5654 5651 5647 5643 5639 5635 5630 5626 5622 5617 5612 5606 5601 5595 5589 5583 5576 5570 5565 5562 5559 5556 5553 5551 5550 5549 5549 5551 5552 5554 5556 5557 5559 5561 5564 5566 5568 5571 5574 5576 5578 5581 5584 5586 5587 5589 5591
5715 5715 5715 5715 5714 5714 5713 5712 5712 5711 5711 5710 5709 5708 5707 5705 5704 5703 5701 5700 5698 5696 5695 5693 5690 5688 5686 5684 5681 5679 5676 5674 5671 5668 5665 5662 5659 5656 5652 5648 5644 5641 5637 5633 5629 5625 5620 5615 5610 5605 5600 5594 5589 5582 5576 5570 5565 5561 5559 5556 5554 5552 5551 5549 5548 5549 5551 5552 5553 5555 5556 5557 5559 5561 5563 5566 5568 5571 5573 5576 5579 5581 5582 5584 5585
5712 5712 5712 5711 5711 5710 5709 5709 5709 5708 5708 5707 5706 5705 5704 5702 5701 5700 5698 5697 5695 5694 5692 5690 5687 5685 5683 5681 5678 5676 5674 5671 5669 5666 5663 5660 5657 5654 5651 5647 5643 5640 5636 5632 5628 5624 5619 5614 5609 5604 5599 5594 5589 5583 5577 5570 5565 5562 5559 5557 5554 5552 5551 5549 5548 5548 5549 5550 5551 5552 5553 5554 5555 5557 5559 5561 5563 5566 5568 5571 5574 5576 5578 5579 5580
5709 5709 5708 5708 5707 5707 5707 5706 5706 5706 5705 5704 5703 5702 5701 5699 5698 5697 5695 5694 5692 5691 5689 5687 5684 5682 5680 5678 5676 5674 5671 5669 5667 5664 5662 5659 5656 5653 5650 5646 5643 5639 5635 5631 5627 5623 5618 5613 5609 5605 5600 5596 5590 5585 5579 5572 5567 5562 5559 5557 5555 5553 5551 5550 5549 5549 5549 5549 5549 5550 5551 5552 5552 5554 5556 5557 5559 5561 5564 5567 5569 5571 5572 5573 5575
5706 5706 5705 5705 5705 5704 5704 5704 5703 5703 5702 5701 5700 5699 5698 5696 5695 5694 5692 5691 5689 5688 5686 5684 5682 5679 5677 5675 5673 5672 5670 5667 5665 5663 5661 5658 5655 5652 5649 5645 5642 5638 5634 5630 5626 5621 5617 5613 5610 5606 5602 5597 5592 5587 5581 5575 5569 5564 5560 5557 5555 5554 5552 5552 5551 5549 5548 5548 5548 5548 5549 5550 5550 5551 5553 5555 5556 5558 5560 5562 5564 5565 5567 5568 5569
5703 5703 5702 5702 5702 5702 5701 5701 5700 5700 5699 5698 5697 5696 5695 5694 5692 5691 5690 5688 5686 5685 5683 5681 5679 5677 5675 5673 5671 5670 5668 5666 5664 5661 5659 5656 5653 5650 5647 5644 5640 5636 5633 5629 5625 5621 5618 5614 5611 5607 5603 5598 5594 5589 5584 5578 5572 5567 5562 5558 5556 5554 5553 5552 5551 5550 5548 5548 5548 5548 5548 5548 5549 5550 5551 5553 5554 5555 5556 5558 5559 5560 5561 5563 5564
5700 5700 5700 5699 5699 5699 5699 5698 5697 5697 5696 5695 5694 5693 5692 5691 5689 5688 5687 5685 5684 5682 5680 5678 5676 5674 5673 5671 5670 5668 5666 5664 5662 5659 5657 5654 5651 5648 5645 5642 5639 5636 5632 5629 5625 5621 5618 5615 5611 5607 5603 5599 5595 5590 5585 5581 5576 5570 5565 5561 5558 5555 5554 5553 5552 5551 5549 5548 5547 5548 5548 5548 5548 5549 5550 5551 5552 5553 5554 5554 5556 5557 5557 5558 5560
5697 5697 5697 5697 5697 5696 5696 5695 5694 5694 5693 5692 5691 5690 5689 5688 5687 5685 5684 5682 5681 5679 5677 5675 5674 5672 5671 5670 5668 5667 5665 5662 5660 5658 5655 5652 5650 5647 5644 5641 5638 5635 5631 5628 5625 5622 5619 5615 5611 5607 5603 5599 5595 5591 5587 5583 5578 5574 5569 5565 5561 5557 5555 5553 5552 5551 5550 5549 5548 5548 5548 5548 5548 5549 5549 5550 5550 5551 5552 5552 5553 5554 5554 5555 5557
5694 5694 5694 5694 5694 5693 5693 5692 5692 5691 5690 5689 5688 5687 5686 5685 5684 5682 5681 5679 5678 5676 5675 5673 5672 5670 5669 5668 5666 5665 5663 5661 5659 5656 5654 5651 5648 5646 5643 5640 5637 5634 5631 5627 5625 5622 5618 5615 5611 5608 5604 5600 5596 5592 5588 5584 5581 5577 5573 5569 5564 5560 5556 5554 5553 5552 5551 5550 5548 5548 5547 5548 5548 5548 5548 5548 5549 5550 5550 5551 5551 5551 5552 5553 5554
5691 5691 5691 5691 5691 5690 5690 5689 5689 5688 5687 5687 5686 5685 5683 5682 5681 5679 5678 5676 5675 5674 5672 5671 5670 5668 5667 5666 5664 5663 5661 5659 5657 5655 5652 5650 5647 5644 5642 5639 5636 5633 5630 5627 5624 5621 5618 5615 5612 5608 5604 5601 5597 5593 5590 5586 5583 5579 5575 5572 5568 5564 5560 5558 5555 5553 5551 5550 5549 5548 5547 5547 5548 5548 5548 5548 5548 5548 5548 5549 5549 5550 5550 5551 5552
5689 5689 5689 5688 5688 5688 5687 5687 5686 5686 5685 5684 5683 5682 5680 5679 5678 5677 5675 5674 5673 5671 5670 5669 5668 5667 5666 5664 5663 5661 5659 5657 5655 5653 5651 5648 5646 5643 5640 5638 5635 5632 5629 5627 5624 5621 5618 5615 5612 5608 5605 5602 5598 5595 5591 5588 5585 5581 5578 5574 5571 5568 5565 5562 5559 5556 5553 5551 5549 5548 5548 5547 5547 5547 5547 5547 5547 5548 5548 5548 5548 5548 5549 5549 5550
5686 5686 5686 5686 5686 5685 5685 5685 5684 5684 5683 5682 5681 5679 5678 5677 5675 5674 5673 5672 5670 5669 5668 5667 5666 5665 5664 5663 5661 5659 5658 5656 5654 5652 5649 5647 5645 5642 5639 5637 5634 5631 5629 5626 5624 5621 5618 5615 5612 5609 5605 5602 5599 5596 5592 5589 5586 5583 5580 5577 5574 5571 5568 5565 5562 5559 5557 5554 5552 5550 5548 5547 5546 5546 5546 5546 5546 5547 5547 5547 5547 5547 5547 5548 5548
5683 5683 5683 5683 5683 5683 5683 5683 5682 5681 5681 5680 5678 5677 5676 5674 5673 5672 5671 5670 5669 5668 5666 5666 5665 5664 5662 5661 5660 5658 5656 5654 5652 5650 5648 5646 5644 5641 5639 5636 5634 5631 5628 5626 5623 5620 5618 5615 5612 5609 5606 5603 5599 5596 5593 5590 5587 5584 5581 5578 5576 5573 5570 5568 5565 5563 5560 5558 5556 5553 5551 5549 5547 5545 5544 5544 5544 5544 5544 5545 5545 5545 5546 5546 5547
5680 5681 5681 5681 5681 5681 5681 5680 5680 5679 5678 5677 5676 5675 5674 5672 5671 5670 5669 5668 5667 5666 5665 5664 5663 5662 5661 5660 5658 5657 5655 5653 5651 5650 5648 5645 5643 5640 5638 5636 5633 5631 5628 5625 5623 5620 5617 5614 5612 5609 5606 5603 5600 5597 5594 5591 5588 5585 5583 5580 5577 5574 5572 5570 5567 5565 5563 5561 5559 5557 5554 5552 5550 5547 5545 5544 5542 5542 5541 5541 5541 5542 5542 5543 5544
5678 5678 5679 5679 5679 5679 5679 5678 5677 5677 5676 5675 5674 5673 5672 5670 5669 5668 5667 5666 5665 5665 5664 5663 5662 5661 5660 5659 5657 5656 5654 5652 5650 5649 5646 5644 5642 5639 5637 5635 5633 5630 5628 5625 5622 5620 5617 5614 5612 5609 5606 5603 5601 5598 5595 5592 5589 5587 5584 5581 5579 5576 5574 5571 5569 5567 5565 5563 5560 5558 5556 5555 5553 5551 5548 5547 5545 5543 5542 5540 5540 5539 5539 5539 5539
5676 5676 5677 5677 5677 5677 5677 5676 5675 5675 5674 5673 5672 5671 5670 5669 5668 5667 5666 5665 5664 5663 5663 5662 5661 5660 5658 5657 5656 5654 5653 5651 5649 5647 5645 5643 5641 5639 5636 5634 5632 5629 5627 5624 5622 5619 5617 5614 5611 5609 5606 5604 5601 5599 5596 5593 5591 5588 5585 5583 5580 5578 5575 5573 5570 5568 5566 5564 5562 5560 5558 5556 5555 5553 5551 5550 5548 5546 5544 5542 5541 5539 5538 5537 5537
5673 5674 5674 5674 5674 5674 5674 5674 5673 5672 5671 5671 5670 5669 5668 5667 5666 5666 5665 5664 5663 5662 5661 5660 5659 5658 5657 5656 5654 5653 5651 5649 5648 5646 5644 5642 5640 5638 5635 5633 5631 5628 5626 5624 5621 5618 5616 5614 5611 5609 5606 5604 5601 5599 5596 5594 5591 5589 5586 5583 5581 5578 5576 5574 5571 5569 5567 5565 5563 5561 5560 5558 5556 5555 5553 5552 5550 5548 5547 5545 5543 5542 5540 5538 5537
5671 5671 5672 5672 5672 5672 5672 5671 5671 5670 5669 5669 5668 5667 5667 5666 5665 5664 5663 5663 5662 5661 5660 5659 5658 5657 5656 5654 5653 5651 5650 5648 5646 5644 5643 5641 5639 5637 5634 5632 5630 5627 5625 5623 5620 5617 5615 5613 5610 5608 5606 5603 5601 5598 5596 5594 5591 5589 5586 5584 5581 5579 5577 5574 5572 5570 5568 5566 5564 5562 5561 5559 5557 5556 5554 5552 5551 5550 5548 5547 5545 5544 5542 5540 5539
5669 5669 5669 5670 5670 5670 5670 5669 5668 5668 5667 5667 5666 5666 5665 5664 5664 5663 5662 5662 5661 5660 5659 5658 5656 5655 5654 5653 5651 5650 5648 5646 5645 5643 5641 5639 5637 5635 5633 5631 5629 5626 5624 5622 5619 5617 5614 5612 5609 5607 5605 5603 5600 5598 5596 5593 5591 5589 5586 5584 5582 5579 5577 5575 5572 5570 5568 5566 5565 5563 5561 5559 5558 5556 5554 5553 5552 5550 5549 5547 5546 5544 5543 5541 5540
5666 5667 5667 5667 5667 5667 5667 5667 5666 5666 5666 5665 5665 5664 5663 5663 5662 5662 5661 5660 5659 5658 5657 5656 5655 5654 5652 5651 5650 5648 5646 5645 5643 5641 5639 5637 5636 5634 5631 5629 5627 5625 5623 5620 5618 5616 5613 5611 5608 5606 5604 5602 5599 5597 5595 5593 5590 5588 5586 5584 5581 5579 5577 5575 5573 5571 5569 5567 5565 5563 5561 5559 5558 5556 5554 5553 5551 5550 5549 5547 5546 5545 5543 5542 5541
5664 5664 5665 5665 5665 5665 5665 5664 5664 5664 5664 5663 5663 5662 5662 5661 5660 5660 5659 5658 5657 5657 5656 5654 5653 5652 5651 5649 5648 5646 5645 5643 5641 5639 5637 5636 5634 5632 5630 5627 5625 5623 5621 5619 5617 5615 5612 5610 5608 5605 5603 5600 5598 5596 5594 5592 5590 5588 5585 5583 5581 5579 5577 5575 5572 5570 5568 5566 5564 5563 5561 5559 5557 5556 5554 5552 5551 5550 5548 5547 5546 5544 5543 5542 5541
5661 5662 5662 5662 5662 5662 5662 5662 5662 5662 5662 5661 5661 5660 5660 5659 5659 5658 5657 5656 5655 5654 5653 5652 5651 5650 5649 5647 5646 5644 5643 5641 5639 5637 5635 5633 5631 5629 5627 5625 5623 5621 5619 5617 5615 5613 5611 5609 5606 5604 5602 5599 5597 5595 5592 5590 5588 5586 5584 5582 5580 5578 5576 5574 5572 5570 5568 5566 5564 5562 5560 5559 5557 5555 5553 5552 5550 5548 5547 5546 5545 5543 5542 5541 5540
5659 5659 5660 5660 5660 5660 5660 5660 5660 5660 5659 5659 5659 5658 5658 5657 5656 5656 5655 5654 5653 5652 5651 5650 5649 5647 5646 5645 5643 5642 5640 5638 5637 5635 5633 5631 5629 5627 5625 5623 5621 5619 5616 5614 5612 5610 5608 5606 5604 5602 5600 5598 5595 5593 5591 5589 5587 5585 5583 5581 5579 5577 5575 5573 5571 5569 5567 5565 5563 5561 5559 5557 5556 5554 5552 5551 5549 5547 5546 5544 5543 5542 5540 5539 5538
5656 5657 5657 5657 5657 5657 5658 5658 5657 5657 5657 5656 5656 5656 5655 5654 5654 5653 5652 5651 5650 5649 5648 5647 5646 5645 5643 5642 5640 5639 5637 5635 5634 5632 5630 5628 5626 5624 5622 5620 5618 5616 5614 5612 5609 5607 5605 5603 5601 5600 5598 5596 5594 5591 5589 5587 5585 5583 5581 5579 5577 5575 5573 5571 5569 5567 5565 5563 5562 5560 5558 5556 5554 5553 5551 5549 5548 5546 5544 5543 5541 5540 5538 5537 5536
5654 5654 5654 5655 5655 5655 5655 5655 5655 5654 5654 5654 5653 5653 5652 5652 5651 5650 5649 5648 5647 5646 5645 5644 5643 5641 5640 5638 5637 5635 5633 5632 5630 5628 5626 5624 5622 5620 5619 5617 5615 5613 5611 5609 5606 5604 5602 5600 5598 5596 5594 5593 5591 5589 5587 5585 5582 5580 5578 5576 5575 5573 5571 5569 5567 5566 5564 5562 5560 5558 5556 5554 5553 5551 5549 5547 5546 5544 5542 5541 5539 5538 5536 5535 5534
5651 5651 5652 5652 5652 5652 5652 5652 5652 5651 5651 5651 5650 5650 5649 5649 5648 5647 5646 5645 5644 5643 5642 5641 5639 5638 5636 5635 5633 5631 5630 5628 5626 5624 5622 5620 5618 5616 5614 5612 5611 5609 5607 5605 5603 5601 5599 5597 5595 5593 5591 5589 5587 5586 5584 5582 5580 5578 5576 5574 5572 5570 5568 5567 5565 5563 5561 5560 5558 5556 5554 5552 5551 5549 5547 5545 5544 5542 5540 5539 5537 5536 5534 5533 5531
5648 5649 5649 5649 5649 5649 5649 5649 5648 5648 5648 5648 5647 5646 5646 5645 5644 5644 5643 5642 5640 5639 5638 5637 5635 5634 5633 5631 5629 5628 5626 5624 5622 5620 5618 5616 5614 5612 5610 5608 5606 5604 5602 5601 5599 5597 5595 5593 5591 5589 5587 5585 5584 5582 5580 5579 5577 5575 5573 5571 5569 5567 5565 5564 5562 5560 5559 5557 5555 5553 5552 5550 5548 5546 5545 5543 5541 5540 5538 5536 5535 5533 5532 5530 5529